Race Results for…
Uncle John 's Dirty Ride

September 09, 2018 Results presented by Uncle Johns Dirty Ride and timed by Igniteyourevent.com
Participants:
237
Last Updated:
9/11/2018 9:34:44 PM
Stats

Leaderboards

RR M 12-99 24 MILE

Male - Overall
Bib Name Gun Elapsed City Age
1 267 DOUG DERDOWSKI 01:11:55 WILLIAMSTON 44
2 1844 JAMES JACKOVATZ 01:11:55 WATERFORD 46
3 1903 CHRIS OSTBERG 01:11:57 COMMERCE CHARTER TOWNSHIP 39

RR M 42-46 56 MILE

Male - Overall
Bib Name Gun Elapsed City Age
1 1875 ERIC MCBRIDE 02:25:14 CANTON 44
2 1852 TOM KELLER 02:25:16 BLOOMINGTON 43
3 1925 JEFF ROTENHEBER 02:27:46 OTTER LAKE 43

RR F 12-99 24 MILE

Female - Overall
Bib Name Gun Elapsed City Age
1 192 VICTORIA CANE 01:16:01 KALAMAZOO 49
2 1899 ANGELA OBRIEN 01:24:42 GRANDVILLE 47
3 1881 EMILY MILESKI 01:25:25 GRAND RAPIDS 29

RR M 55-99 56 MILE

Male - Overall
Bib Name Gun Elapsed City Age
1 1974 PAUL GUIMAND 02:38:59 55
2 297 STEVEN HALSTEAD 02:39:11 BELLEVUE 60
3 191 MARK CAHN 02:39:11 W BLOOMFIELD 59

RR F 32-36 56 MILE

Female - Overall
Bib Name Gun Elapsed City Age
1 259 TYACIE CORLE 03:00:06 ANN ARBOR 35
2 180 TRACY BERMAN 03:06:18 ANN ARBOR 35

RR M 32-36 56 MILE

Male - Overall
Bib Name Gun Elapsed City Age
1 1850 DAN KANNEGIETER 02:27:44 SCOTT'S 32
2 1904 TROY OTTE 02:27:52 GRAND RAPIDS 36
3 1868 SHELDON LITTLE 02:27:53 LANSING 34

RR M 52--54 56 MILE

Male - Overall
Bib Name Gun Elapsed City Age
1 1989 RICHARD LANDGRAFF 02:27:39 53
2 291 WILLIAM GORTON 02:27:52 ALMA 52
3 290 DEAN GERICKE 02:28:16 BRIGHTON 53

RR F 55-99 56 MILE

Female - Overall
Bib Name Gun Elapsed City Age
1 1947 LAURA STUCHELL 03:48:21 BATTLE CREEK 59
2 193 MELODY CARMICHAEL 03:55:05 TEMPERANCE 56

RR FAT TIRE 24 MILE

Male - Overall
Bib Name Gun Elapsed City Age
1 200 CHARLES CLARK 01:14:57 VICKSBURG 48
2 1949 SHANE THELLMAN 01:15:29 KALAMAZOO 41
3 1912 TANNER PINNEY 01:25:34 HOLLAND 39

RR TANDEM 56 MILE

Male - Overall
Bib Name Gun Elapsed City Age
1 1968 JAMES & LORI GOMEZ 02:46:24 51
2 269 JIM DEWENT 02:46:40 GRAND HAVEN 53
3 1995 DAVID & CHRIS DRATH 02:47:32 36
Female - Overall
Bib Name Gun Elapsed City Age
1 1840 SUZANNE HOGAN 02:49:13 LIVONIA 49
2 1961 LAURIE WHITE 03:10:52 MUSKEGON 68

RR M 37-41 56 MILE

Male - Overall
Bib Name Gun Elapsed City Age
1 1964 DANIEL YANKUS 02:25:10 MILFORD 37
2 1853 SEAN KICKBUSH 02:25:25 41
3 1864 STEPHEN KUNST 02:27:37 GRAND RAPIDS 38

RR M 21-26 56 MILE

Male - Overall
Bib Name Gun Elapsed City Age
1 1933 DANIEL SHAMBURGER 02:25:13 GRAND RAPIDS 24
2 2000 LOGAN MILLER 02:27:45 23
3 270 ROSS DIFALCO 02:27:45 HIGHLAND CHARTER TOWNSHIP 23

RR F 27-31 56 MILE

Female - Overall
Bib Name Gun Elapsed City Age
1 273 CHRISTINA DRAIJER 02:40:00 ANN ARBOR 30
2 293 BRIANA GREENLEE 03:09:10 CANON CITY 31

RR F 37-41 56 MILE

Female - Overall
Bib Name Gun Elapsed City Age
1 1987 SARAH SEELYE 02:36:39 39
2 292 HEATHER GOSS 02:46:55 GRAND HAVEN 37
3 282 SALLY FINKBEINER 02:51:29 GRAND RAPIDS 38

RR F 47-51 56 MILE

Female - Overall
Bib Name Gun Elapsed City Age
1 1842 STACEY HUGHES 03:00:01 INDIANAPOLIS 47
2 1913 KELLY PLICHTA 03:42:39 MUSKEGON 49

RR M 16-20 56 MILE

Male - Overall
Bib Name Gun Elapsed City Age
1 1860 KEEGAN KORIENEK 02:25:11 GRANDVILLE 19
2 1892 LUKE MULLIS 02:25:17 ROCHESTER HILLS 20
3 1908 AARON PEKRUL 03:02:26 ROCKFORD 20

RR F 52-54 56 MILE

Female - Overall
Bib Name Gun Elapsed City Age
1 1907 SUZANNE PEATS 02:49:15 PERRYSBURG 53

RR FAT TIRE 56 MILE

Male - Overall
Bib Name Gun Elapsed City Age
1 1944 TOM STONER 02:39:01 KALAMAZOO 47
2 1918 JAKE REMACLE 02:43:16 MIDLAND 40
3 1952 ANDREW THOMPSON 02:43:38 MIDLAND 46

RR F 42-46 56 MILE

Female - Overall
Bib Name Gun Elapsed City Age
1 288 ELAINE REED 03:09:17 46

RR M 47-51 56 MILE

Male - Overall
Bib Name Gun Elapsed City Age
1 1942 TIMOTHY STEWART 02:27:41 KALAMAZOO 51
2 1855 TODD KING 02:27:51 FLUSHING 48
3 1873 DAVID MANGES 02:28:08 FLUSHING 47

RR M 27-31 56 MILE

Male - Overall
Bib Name Gun Elapsed City Age
1 1839 KEVIN HORTHAWG 02:25:13 28
2 254 TYLER CLOUTIER 02:25:15 DALLAS 29
3 1948 ALEXANDER TENELSHOF 02:25:23 GRAND RAPIDS 28

Overall Results

Tip: Swipe the results table to view more.
91 entrants …
RR M 12-99 24 MILE Results
Bib Name Gun Elapsed Age Division Gender City Gender Place Div Place
267 DOUG DERDOWSKI 01:11:55 44 RR M 12-99 24 MILE M WILLIAMSTON 1 1
1844 JAMES JACKOVATZ 01:11:55 46 RR M 12-99 24 MILE M WATERFORD 2 2
1903 CHRIS OSTBERG 01:11:57 39 RR M 12-99 24 MILE M COMMERCE CHARTER TOWNSHIP 3 3
1957 LUCAS VANDRUNEN 01:11:57 33 RR M 12-99 24 MILE M GRAND RAPIDS 4 4
1955 DAVID TUIT 01:12:03 50 RR M 12-99 24 MILE M ROCKFORD 5 5
1992 JIMMI MCMURRAY 01:12:05 52 RR M 12-99 24 MILE M 6 6
1956 LEONARD VAN DRUNEN 01:12:06 59 RR M 12-99 24 MILE M GRAND RAPIDS 7 7
1871 DON MACPHAIL 01:12:11 53 RR M 12-99 24 MILE M 8 8
170 TROY ANDREWS 01:12:12 37 RR M 12-99 24 MILE M WHITE PIGEON 9 9
295 MATT GUNDERSON 01:12:23 41 RR M 12-99 24 MILE M KALAMAZOO 10 10
1848 MICK JONES 01:12:32 51 RR M 12-99 24 MILE M ANN ARBOR 11 11
1870 DAMON LOWE 01:12:35 32 RR M 12-99 24 MILE M ESSEXVILLE 12 12
299 NICHOLAS HAMPTON 01:12:44 29 RR M 12-99 24 MILE M KALAMAZOO 13 13
169 FREDRICK ANDERSON 01:12:48 63 RR M 12-99 24 MILE M OKEMOS 14 14
1982 SCOTT STEURER 01:12:53 57 RR M 12-99 24 MILE M 15 15
1946 TOM STRUMBERGER 01:13:33 54 RR M 12-99 24 MILE M MIDDLEVILLE 16 16
1851 WILLIAM KANNENBERG 01:13:36 36 RR M 12-99 24 MILE M BATTLE CREEK 17 17
1969 ERIC CELL 01:13:39 42 RR M 12-99 24 MILE M 18 18
289 E. FULKERSON 01:13:45 59 RR M 12-99 24 MILE M KALAMAZOO 19 19
1934 WILLIAM SHAVER 01:14:39 55 RR M 12-99 24 MILE M COMSTOCK PARK 20 20
1896 PAUL NICHOLLS 01:14:50 49 RR M 12-99 24 MILE M BOYNE CITY 21 21
287 DAN FRAYER 01:15:10 38 RR M 12-99 24 MILE M GALESBURG 22 22
255 MIKE CONNELLY 01:15:10 65 RR M 12-99 24 MILE M GOBLES 23 23
265 RON DAVIS 01:15:11 34 RR M 12-99 24 MILE M FOWLER 24 24
286 SKY FOSTER 01:15:22 46 RR M 12-99 24 MILE M SAINT JOHNS 25 25
179 CLARK BENNETT 01:16:20 42 RR M 12-99 24 MILE M GRAND RAPIDS 26 26
174 JONATHAN BALLEMA 01:16:24 37 RR M 12-99 24 MILE M KALAMAZOO 27 27
271 BILL GALLAGHER 01:16:37 36 RR M 12-99 24 MILE M 28 28
1998 RYAN MAGUINS 01:17:53 30 RR M 12-99 24 MILE M 29 29
277 CHARLIE EATON 01:17:58 22 RR M 12-99 24 MILE M KALAMAZOO 30 30
1935 BENJAMIN SHIELDS 01:18:00 29 RR M 12-99 24 MILE M KALAMAZOO 31 31
181 KYLE BIBBY 01:18:28 28 RR M 12-99 24 MILE M GRAND RAPIDS 32 32
1976 IAN DURAND 01:19:33 20 RR M 12-99 24 MILE M 33 33
1971 JOE OSTERBIK 01:19:47 49 RR M 12-99 24 MILE M 34 34
1943 RICHARD STONE 01:19:55 56 RR M 12-99 24 MILE M PERRY 35 35
1984 JIM WITHERS 01:20:15 62 RR M 12-99 24 MILE M 36 36
1972 BRIAN NEELEY 01:20:43 50 RR M 12-99 24 MILE M 37 37
1837 TOM HENSEL 01:21:36 48 RR M 12-99 24 MILE M SAGINAW 38 38
1863 N. MULLIS 01:21:40 58 RR M 12-99 24 MILE M 39 39
1865 TOM KUNTZLEMAN 01:21:48 50 RR M 12-99 24 MILE M SPRING ARBOR 40 40
1859 NICHOLAS KOENIGSKNECHT 01:22:20 25 RR M 12-99 24 MILE M SAINT JOHNS 41 41
173 PATRICK BACON 01:23:04 44 RR M 12-99 24 MILE M GRAND RAPIDS 42 42
1938 BOB SKARYD 01:25:25 51 RR M 12-99 24 MILE M ELSIEELSIE 43 43
1986 MARK LAWRENCE 01:25:27 34 RR M 12-99 24 MILE M 44 44
1991 MICHAEL VANDENBERG 01:25:29 51 RR M 12-99 24 MILE M 45 45
1874 DENNIS MASSE 01:25:30 63 RR M 12-99 24 MILE M 46 46
1932 JEFF SEMERAU 01:25:35 53 RR M 12-99 24 MILE M UTICA 47 47
296 RICK HACKBARTH 01:25:38 60 RR M 12-99 24 MILE M GRAND RAPIDS 48 48
1980 JOHN EDINGFIELD 01:26:08 53 RR M 12-99 24 MILE M 49 49
187 MARC BROWN 01:27:03 50 RR M 12-99 24 MILE M VALPARAISO 50 50
91 entrants …

Winners

Tip: Slide the results table left and right to view more.
Overall
Bib Name Gun Elapsed Age Division Gender City Gender Place Div Place

Race Info

Participants:
237
Last Updated:
9/11/2018 9:34:44 PM

Tip: Swipe the results table to view more.

Search for Name, Bib, City, State or Team
in the field above… by clicking the icon below…

Notes & Race Statistics

RR M 27-31 56 MILE - 7


Male
Total Finishers Avg Pace
7 00:00

Female
Total Finishers Avg Pace
0 00:00

RR M 47-51 56 MILE - 15


Male
Total Finishers Avg Pace
15 00:00

Female
Total Finishers Avg Pace
0 00:00

RR M 12-99 24 MILE - 90


Male
Total Finishers Avg Pace
90 00:00

Female
Total Finishers Avg Pace
0 00:00

RR M 42-46 56 MILE - 14


Male
Total Finishers Avg Pace
14 00:00

Female
Total Finishers Avg Pace
0 00:00

RR F 12-99 24 MILE - 24


Male
Total Finishers Avg Pace
0 00:00

Female
Total Finishers Avg Pace
24 00:00

RR M 55-99 56 MILE - 18


Male
Total Finishers Avg Pace
18 00:00

Female
Total Finishers Avg Pace
0 00:00

RR F 32-36 56 MILE - 2


Male
Total Finishers Avg Pace
0 00:00

Female
Total Finishers Avg Pace
2 00:00

RR M 32-36 56 MILE - 6


Male
Total Finishers Avg Pace
6 00:00

Female
Total Finishers Avg Pace
0 00:00

RR M 52--54 56 MILE - 11


Male
Total Finishers Avg Pace
11 00:00

Female
Total Finishers Avg Pace
0 00:00

RR F 55-99 56 MILE - 2


Male
Total Finishers Avg Pace
0 00:00

Female
Total Finishers Avg Pace
2 00:00

RR FAT TIRE 24 MILE - 6


Male
Total Finishers Avg Pace
6 00:00

Female
Total Finishers Avg Pace
0 00:00

RR TANDEM 56 MILE - 10


Male
Total Finishers Avg Pace
8 00:00

Female
Total Finishers Avg Pace
2 00:00

RR M 37-41 56 MILE - 11


Male
Total Finishers Avg Pace
11 00:00

Female
Total Finishers Avg Pace
0 00:00

RR M 21-26 56 MILE - 5


Male
Total Finishers Avg Pace
5 00:00

Female
Total Finishers Avg Pace
0 00:00

RR F 27-31 56 MILE - 2


Male
Total Finishers Avg Pace
0 00:00

Female
Total Finishers Avg Pace
2 00:00

RR F 37-41 56 MILE - 3


Male
Total Finishers Avg Pace
0 00:00

Female
Total Finishers Avg Pace
3 00:00

RR F 47-51 56 MILE - 2


Male
Total Finishers Avg Pace
0 00:00

Female
Total Finishers Avg Pace
2 00:00

RR M 16-20 56 MILE - 4


Male
Total Finishers Avg Pace
4 00:00

Female
Total Finishers Avg Pace
0 00:00

RR F 52-54 56 MILE - 1


Male
Total Finishers Avg Pace
0 00:00

Female
Total Finishers Avg Pace
1 00:00

RR FAT TIRE 56 MILE - 3


Male
Total Finishers Avg Pace
3 00:00

Female
Total Finishers Avg Pace
0 00:00

RR F 42-46 56 MILE - 1


Male
Total Finishers Avg Pace
0 00:00

Female
Total Finishers Avg Pace
1 00:00

Have a question or need to make a correction?

Submit a Result Correction